User: anonymous   Login
Location: Unspecified
(0.0000°N, 0.0000°E)
Time: 04:51:41
(UTC+02:00)
Language:

Cosmos 1626 Rocket - Orbit

View from above orbital plane
View from above orbital plane
View from above satellite
View from above satellite

Ground track
Ground track

The orbit data is extracted from the following two-line orbital elements,

1 15495U 85009B   16209.86430995  .00000098  00000-0  89410-5 0  9992
2 15495  82.5266 131.2482 0019235 324.0256  35.9663 14.83717914701878
Epoch (UTC): 27 July 2016 20:44:36
Eccentricity: 0.0019235
inclination: 82.5266°
perigee height: 604 km
apogee height: 631 km
right ascension of ascending node: 131.2482°
argument of perigee: 324.0256°
revolutions per day: 14.83717914
mean anomaly at epoch: 35.9663°
orbit number at epoch: 70187

The dashed part of the orbit path shows where the satellite is in the earth's shadow,  

DLR